Regional Weather Roundup
Issued by NWS

Home | Current Version | Previous Version | Graphics & Text | Print | Product List | Glossary On
Versions: 1 2 3 4 5 6 7 8 9 10 11 12 13 14 15 16 17 18 19 20 21 22 23 24 25 26 27
000
ASUS45 KBOU 250110
RWRCO

WEATHER ROUNDUP FOR COLORADO
NATIONAL WEATHER SERVICE DENVER/BOULDER CO
700 PM MDT THU MAY 24 2018

NOTE: "FAIR" INDICATES FEW OR NO CLOUDS BELOW 12000 FEET WITH NO
SIGNIFICANT WEATHER AND/OR OBSTRUCTIONS TO VISIBILITY.

COZ001>005-013-030-031-250200-
...NORTHWEST COLORADO...

CITY           SKY/WX    TMP DP  RH WIND       PRES   REMARKS
CRAIG          FAIR      76  31  19 W9        30.14F
HAYDEN         FAIR      72  30  21 W8        30.18F
MEEKER         FAIR      78  29  16 W3        30.15S
RANGELY        FAIR      81  31  16 SW8       30.05F
RABBIT EARS PA FAIR      54  30  40 W8        30.45R
STEAMBOAT SPGS FAIR      71  32  23 W7        30.20S
WALDEN         FAIR      64  27  24 W12       30.29S
$$

COZ006>008-011-250200-
...WEST CENTRAL VALLEYS...

CITY           SKY/WX    TMP DP  RH WIND       PRES   REMARKS
GRAND JUNCTION FAIR      85  24  11 NW9       30.02F
MONTROSE       FAIR      81  21  11 N9        30.09F
EAGLE          FAIR      77  24  14 NW8       30.17S
RIFLE          FAIR      82  19   9 W14G20    30.07F
DELTA          FAIR      86  19   8 CALM      30.04F
NUCLA          FAIR      82  12   7 SW9       30.14S
$$

COZ017>023-064>068-250200-
...SOUTHWEST COLORADO...

CITY           SKY/WX    TMP DP  RH WIND       PRES   REMARKS
DURANGO        FAIR      77   9   7 SW10      30.18S
CORTEZ         FAIR      81  14   8 SW8       30.12F
PAGOSA SPRINGS FAIR      75 -12   3 SW9G17    30.26S
TELLURIDE      FAIR      68  14  12 W3        30.34S
WOLF CREEK PAS FAIR      52   9  17 S16G24    30.58F
$$

COZ009-010-012-014-032>034-037-058>063-250200-
...CENTRAL COLORADO...

CITY           SKY/WX    TMP DP  RH WIND       PRES   REMARKS
ASPEN          FAIR      65  29  25 CALM      30.23F
BUENA VISTA    FAIR      74  12   9 W12       30.22S
COPPER MTN     FAIR      54  23  30 NW10      30.55R
BERTHOUD PASS  FAIR      45  34  65 W17       30.58R
COTTONWOOD PAS FAIR      72   9   8 CALM      30.37S
GUNNISON       FAIR      74  21  13 W5        30.22S
GRANBY         FAIR      65  32  29 W7        30.29S
KREMMLING      FAIR      73  32  21 CALM      30.24S
LEADVILLE      FAIR      61  20  20 W10       30.38S
MONARCH PASS   FAIR      55  16  21 MISG      30.63S
SALIDA         FAIR      78  17  10 S10G17    30.25S
SUNLIGHT       FAIR      55  21  26 W6        30.48F
WILKERSON PASS PTSUNNY   52  27  37 NE7       30.52S
$$

COZ069>075-250200-
...SAN LUIS VALLEY/SANGRE DE CRISTO MOUNTAINS...

CITY           SKY/WX    TMP DP  RH WIND       PRES   REMARKS
ALAMOSA        FAIR      75  10   8 W16       30.20S
DEL NORTE      FAIR      73  15  10 SW15G25   30.24R
LA VETA PASS   FAIR      61  18  18 SW8G25    30.51S
SAGUACHE       NOT AVBL
$$

COZ035-036-038>040-250200-
...NORTHERN COLORADO FRONT RANGE...

CITY           SKY/WX    TMP DP  RH WIND       PRES   REMARKS
DENVER INTL AP PTSUNNY   77  41  27 SE17G26   30.07R
AURORA         PTSUNNY   76  41  28 SE15      30.08F
FRONT RANGE AP NOT AVBL
ERIE MUNI ARPT FAIR      80  32  17 NE6       30.09S
BOULDER MUN AP FAIR      75  45  33 CALM      30.06R
CENTENNIAL     FAIR      76  38  25 SE15G24   30.09F
BROOMFIELD     PTSUNNY   79  32  18 NE7       30.08R
FORT COLLINS   PTSUNNY   71  46  40 SW7       30.05S
LONGMONT       FAIR      79  39  23 NE12      30.06S
$$

COZ041-046-047-076>085-087-088-250200-
...PIKES PEAK/PALMER DIVIDE AND SOUTHERN FOOTHILLS...

CITY           SKY/WX    TMP DP  RH WIND       PRES   REMARKS
COLO. SPRINGS  FAIR      76  37  24 NE16      30.13R
A. F. ACADEMY  FAIR      73  33  23 E9        30.14S
SCHRIEVER AFB  NOT AVBL
CHEYENNE MTN   PTSUNNY   69  34  27 N6        30.14S
ELLICOTT       NOT AVBL
FALCON         NOT AVBL
FORT CARSON    FAIR      75  35  24 NE15      30.09R
LIMON          FAIR      75  38  26 E7        30.08F
MONUMENT HILL  FAIR      70  32  24 CALM      30.21S
CANON CITY     SUNNY     84  37  18 N22G28    30.03R
WALSENBURG     FAIR      86  19   8 NW8       30.07S
TRINIDAD       FAIR      83  31  15 SE10      30.05F
$$

COZ042>045-048>051-090-091-250200-
...NORTHEAST COLORADO...

CITY           SKY/WX    TMP DP  RH WIND       PRES   REMARKS
GREELEY ARPT   FAIR      80  35  19 W32G52    30.04R
AKRON          FAIR      80  40  23 CALM      30.03F
BURLINGTON     FAIR      72  57  59 W7        30.03R
WRAY           FAIR      81  54  39 E6        29.98S
YUMA           FAIR      79  52  38 E9        30.00S
STERLING       FAIR      77  48  36 N8        29.99R
HOLYOKE        FAIR      81  52  36 N3        29.99R
FORT MORGAN    FAIR      78  40  25 NE5       30.03S
$$

COZ086-089-092>099-250200-
...SOUTHEAST COLORADO...

CITY           SKY/WX    TMP DP  RH WIND       PRES   REMARKS
PUEBLO         FAIR      82  37  20 E22G32    29.99R
LA JUNTA       FAIR      84  42  22 NE16G26   29.95F
LAMAR          FAIR      84  42  22 NE13      29.93R
SPRINGFIELD      N/A     83  42  23 S20       29.95R
$$




USA.gov is the U.S. government's official web portal to all federal, state and local government web resources and services.